This demonstration page uses our WeatherBlox Daily Observations layout. Learn more.

Left ArrowRight Arrow

Hourly Observations for September 19, 2015

Temp ( °F °C ) Dew Point ( °F °C ) Humidity (%) Winds ( mph kmh ) Pressure ( in mb ) Visibility ( mi km ) Precip ( " mm )
12:51 am 00:51 Clear 77 25 42 5.6 29 29 NNW 6 9 29.71 1006 10 16.0934 0 0
1:51 am 01:51 Clear 79 26.1 41 5 26 26 WNW 7 11 29.72 1006 10 16.0934 0 0
2:51 am 02:51 Clear 73 22.8 43 6.1 34 34 ESE 3 6 29.73 1007 10 16.0934 0 0
3:51 am 03:51 Clear 73 22.8 44 6.7 35 35 Calm 29.73 1007 10 16.0934 0 0
4:51 am 04:51 Clear 70 21.1 44 6.7 39 39 Calm 29.74 1007 10 16.0934 0 0
5:51 am 05:51 Clear 67 19.4 44 6.7 44 44 ESE 5 7 29.76 1008 10 16.0934 0 0
6:51 am 06:51 Sunny 70 21.1 44 6.7 39 39 ESE 3 6 29.78 1008 10 16.0934 0 0
7:51 am 07:51 Sunny 77 25 46 7.8 33 33 SSE 5 7 29.8 1009 10 16.0934 0 0
8:51 am 08:51 Sunny 80 26.7 46 7.8 30 30 ESE 6 9 29.81 1009 10 16.0934 0 0
9:51 am 09:51 Partly Cloudy 85 29.4 46 7.8 26 26 ESE 12 19 29.83 1010 10 16.0934 0 0
10:14 am 10:14 Partly Cloudy with Nearby Thunderstorms 84 28.9 45 7.2 25 25 SE 10 17 29.77 1008 10 16.0934 0 0
10:37 am 10:37 Cloudy 81 27.2 48 8.9 32 32 S 10 17 29.8 1009 10 16.0934 0 0
10:51 am 10:51 Mostly Cloudy with Nearby Thunderstorms 81 27.2 50 10 34 34 S 9 15 29.85 1011 10 16.0934 0 0
11:24 am 11:24 Cloudy 78 25.6 55 12.8 45 45 SSE 10 17 29.8 1009 10 16.0934 0 0
11:51 am 11:51 Partly Cloudy with Light Rain 81 27.2 55 12.8 41 41 SE 15 24 29.85 1011 10 16.0934 0 0.0254
12:51 pm 12:51 undefined 79 26.1 59 15 50 50 SE 14 22 29.88 1012 10 16.0934 0 0.0254
1:51 pm 13:51 undefined 80 26.7 61 16.1 52 52 S 15 24 29.85 1011 10 16.0934 0 0
2:51 pm 14:51 Mostly Sunny 80 26.7 59 15 49 49 SSE 16 26 29.85 1011 10 16.0934 0 0
3:51 pm 15:51 Sunny 79 26.1 59 15 50 50 S 15 24 29.85 1011 10 16.0934 0 0
4:51 pm 16:51 Sunny 79 26.1 56 13.3 45 45 SE 14 22 29.85 1011 10 16.0934 0 0
5:51 pm 17:51 Sunny 78 25.6 57 13.9 48 48 ESE 12 19 29.86 1011 10 16.0934 0 0
6:51 pm 18:51 Mostly Clear 76 24.4 58 14.4 54 54 ESE 9 15 29.87 1012 10 16.0934 0 0
7:51 pm 19:51 Mostly Clear 74 23.3 59 15 60 60 ESE 9 15 29.88 1012 10 16.0934 0 0
8:51 pm 20:51 Clear 74 23.3 59 15 60 60 ESE 8 13 29.91 1013 10 16.0934 0 0
9:51 pm 21:51 Mostly Cloudy 74 23.3 58 14.4 57 57 SSE 12 19 29.9 1013 10 16.0934 0 0
10:51 pm 22:51 Clear 71 21.7 62 16.7 73 73 S 8 13 29.91 1013 10 16.0934 0 0
11:51 pm 23:51 Clear 72 22.2 61 16.1 68 68 SE 8 13 29.89 1012 10 16.0934 0 0

Powered by AerisWeather